Glendale Luke AFB, AZ

6:25 PM MST on July 26, 2017 (GMT -0700)
Luke Air Force Base

Weather History for KLUF - September, 2012

Change the Weather History Date:

Wednesday, September 26, 2012

  Actual Average Record
Temperature  
Mean Temperature 81 °F -  
Max Temperature 95 °F 97 °F 108 °F (1991)
Min Temperature 67 °F 63 °F 46 °F (1920)
Cooling Degree Days 16    
Growing Degree Days 31 (Base 50)    
Moisture  
Dew Point 44 °F    
Average Humidity 26    
Maximum Humidity 42    
Minimum Humidity 14    
Precipitation  
Precipitation 0.00 in - - ()
Sea Level Pressure  
Sea Level Pressure 29.76 in    
Wind  
Wind Speed 3 mph (NNW)    
Max Wind Speed 9 mph    
Max Gust Speed -    
Visibility 10 miles    
Events      
Averages and records for this station are not official NWS values.
T = Trace of Precipitation, MM = Missing Value Source: NWS Daily Summary

Daily Weather History Graph

Daily Weather History Graph

Search for Another Location

Airport or City:

Trip Planner

Search our weather history database for the weather conditions in past years. The results will help you decide how hot, cold, wet, or windy it might be!

Date:

Astronomy

Sep. 26, 2012 Rise Set
Actual Time 6:20 AM MST 6:19 PM MST
Civil Twilight 5:55 AM MST 6:44 PM MST
Nautical Twilight 5:27 AM MST 7:13 PM MST
Astronomical Twilight 4:57 AM MST 7:42 PM MST
Moon 4:14 PM MST (9/26) 2:59 AM MST (9/26)
Length of Visible Light 12h 48m
Length of Day
11h 59m
Waxing Gibbous, 88% of the Moon is Illuminated
Sep 26
Waxing Gibbous
Sep 29
Full
Oct 8
Last Quarter
Oct 15
New
Oct 21
First Quarter

Hourly Weather History & Observations

Time (MST) Temp. Dew Point Humidity Pressure Visibility Wind Dir Wind Speed Gust Speed Precip Events Conditions
1:55 AM 73.8 °F 45.5 °F 36% 29.73 in 10.0 mi Calm Calm - N/A   Clear
2:55 AM 71.1 °F 44.1 °F 38% 29.73 in 10.0 mi NNW 4.6 mph - N/A   Clear
3:55 AM 68.4 °F 44.4 °F 42% 29.74 in 10.0 mi NNW 6.9 mph - N/A   Clear
4:55 AM 69.4 °F 43.9 °F 40% 29.74 in 10.0 mi NNE 3.5 mph - N/A   Clear
5:55 AM 67.3 °F 43.7 °F 42% 29.76 in 10.0 mi NNW 6.9 mph - N/A   Clear
6:55 AM 67.6 °F 43.5 °F 42% 29.78 in 10.0 mi NNW 6.9 mph - N/A   Clear
7:55 AM 74.1 °F 46.6 °F 37% 29.80 in 10.0 mi North 3.5 mph - N/A   Clear
8:48 AM 80.6 °F 44.6 °F 28% 29.81 in 10.0 mi NNW 3.5 mph - N/A   Light Drizzle
8:55 AM 80.8 °F 43.5 °F 27% 29.81 in 10.0 mi Calm Calm - N/A   Clear
9:55 AM 83.5 °F 44.8 °F 26% 29.81 in 10.0 mi Calm Calm - N/A   Clear
10:06 AM 84.2 °F 44.6 °F 25% 29.81 in 10.0 mi Calm Calm - N/A   Clear
10:55 AM 87.6 °F 45.1 °F 23% 29.80 in 10.0 mi Calm Calm - N/A   Clear
11:55 AM 91.4 °F 47.1 °F 22% 29.79 in 10.0 mi Variable 4.6 mph - N/A   Clear
12:55 PM 93.7 °F 41.9 °F 17% 29.77 in 10.0 mi SE 4.6 mph - N/A   Clear
1:32 PM 95.0 °F 41.0 °F 15% 29.75 in 10.0 mi East 4.6 mph - N/A   Light Drizzle
1:44 PM 95.0 °F 39.2 °F 14% 29.75 in 10.0 mi SSE 9.2 mph - N/A   Clear
1:55 PM 94.5 °F 40.6 °F 15% 29.75 in 10.0 mi Calm Calm - 0.00 in   Clear
2:55 PM 94.5 °F 40.6 °F 15% 29.74 in 10.0 mi Calm Calm - N/A   Clear
3:55 PM 94.8 °F 39.4 °F 15% 29.73 in 10.0 mi Calm Calm - N/A   Clear
4:55 PM 94.6 °F 41.0 °F 16% 29.72 in 10.0 mi South 4.6 mph - N/A   Clear
5:55 PM 93.9 °F 40.3 °F 15% 29.73 in 10.0 mi WSW 4.6 mph - N/A   Clear
6:55 PM 90.5 °F 43.5 °F 20% 29.74 in 10.0 mi Calm Calm - N/A   Clear
7:08 PM 89.6 °F 44.6 °F 21% 29.74 in 10.0 mi Calm Calm - N/A   Light Drizzle
7:17 PM 87.8 °F 44.6 °F 22% 29.75 in 10.0 mi Calm Calm - N/A   Clear
7:55 PM 84.7 °F 44.6 °F 24% 29.76 in 10.0 mi Calm Calm - 0.00 in   Clear
8:55 PM 82.2 °F 45.5 °F 27% 29.76 in 10.0 mi NW 8.1 mph - N/A   Clear
9:55 PM 81.1 °F 44.6 °F 28% 29.78 in 10.0 mi Calm Calm - N/A   Clear
10:55 PM 80.1 °F 43.7 °F 28% 29.79 in 10.0 mi NW 3.5 mph - N/A   Clear
11:55 PM 75.9 °F 46.8 °F 36% 29.79 in 10.0 mi NNW 5.8 mph - N/A   Clear